Flag for Canada Weather past 2 weeks in Steinbach, Manitoba, Canada

Now
59 °F

Clear.


Feels Like: 59 °F
Forecast: 54 / 77 °F
Wind: 5 mph from North

Location: Winnipeg Int. Airportman.

Current Time: Jun 30, 2015 at 12:17:36 AM

Latest Report: Jun 30, 2015 at 12:00 AM


Visibility: 15 mi

Pressure: 29.96 "Hg

Humidity: 94%

Dew point: 57 °F

Location of SteinbachLocation

Historic Weather in Steinbach — Graph

°F

Steinbach temperature yesterday

Maximum temperature yesterday: 73 °F (at 3:00 PM)
Minimum temperature yesterday: 57 °F (at 6:00 AM)
Average temperature yesterday: 67 °F

Past Weeks' High & Low Weather Summary

 TemperatureHumidityPressure
High82 °F (Jun 28, 5:00 PM)100% (Jun 15, 2:00 AM)30.23 "Hg (Jun 15, 2:00 AM)
Low41 °F (Jun 18, 5:00 AM)33% (Jun 16, 1:00 PM)29.70 "Hg (Jun 22, 4:00 AM)
Average64 °F72%29.96 "Hg
* Reported Jun 14 11:00 PM — Jun 29 11:00 PM, Steinbach, Weather by CustomWeather, © 2015

Note: Actual official high and low records may vary slightly from our data, if they occured in-between our weather recording intervals... More about our weather records

Advertising

Steinbach weather history for previous 24 hours

 ConditionsComfort  
Time TempWeatherWind HumidityBarometerVisibility
11:00 PM
Mon, Jun 29
59 °FClear.5 mph100%29.96 "Hg15 mi
10:00 PM63 °FSunny.5 mph94%29.95 "Hg12 mi
9:00 PM66 °FSunny.7 mph88%29.93 "Hg12 mi
8:00 PM68 °FSunny.7 mph83%29.92 "Hg12 mi
7:00 PM70 °FSunny.9 mph78%29.92 "Hg10 mi
6:00 PM70 °FHaze.7 mph83%29.93 "Hg12 mi
5:00 PM72 °FPassing clouds.10 mph73%29.93 "Hg12 mi
4:00 PM72 °FPassing clouds.12 mph78%29.92 "Hg12 mi
3:00 PM73 °FScattered clouds.13 mph74%29.92 "Hg10 mi
2:00 PM72 °FScattered clouds.14 mph69%29.90 "Hg10 mi
1:00 PM72 °FPassing clouds.15 mph65%29.90 "Hg15 mi
12:00 PM72 °FPassing clouds.13 mph73%29.89 "Hg15 mi
11:00 AM72 °FPassing clouds.13 mph78%29.88 "Hg15 mi
10:00 AM70 °FPartly sunny.12 mph78%29.87 "Hg12 mi
9:00 AM68 °FPartly sunny.14 mph83%29.85 "Hg10 mi
8:00 AM66 °FPartly sunny.3 mph88%29.83 "Hg10 mi
7:00 AM61 °FOvercast.6 mph94%29.83 "Hg10 mi
6:00 AM57 °FOvercast.7 mph100%29.80 "Hg10 mi
5:00 AM59 °FPassing clouds.7 mph94%29.78 "Hg10 mi
3:00 AM66 °FPassing clouds.6 mph83%29.78 "Hg10 mi
2:00 AM66 °FPassing clouds.8 mph83%29.79 "Hg10 mi
1:00 AM68 °FPassing clouds.8 mph78%29.79 "Hg10 mi
12:00 AM68 °FPartly cloudy.6 mph73%29.80 "Hg10 mi
Weather by CustomWeather, © 2015

See weather overviewHow to use our weather pages